Hourly Data Report for December 15, 2004

TORONTO CITY
ONTARIO

43°40'00.000" N
79°24'00.000" W
112.50 m
6158355
71508
XTO

Download Data

Hourly Data (December 2004)
Hourly Data Report for December 15, 2004
TIME
LST
Temp Definition
°C
Dew Point Definition
°C
Rel Hum Definition
%
Precip. Amount Definition
mm

Wind Dir Definition
10's deg

Wind Spd Definition
km/h
Visibility Definition
km
Stn Press Definition
kPa
Hmdx Definition


Wind Chill Definition


Weather Definition


00:00 -4.8 -9.2 71   LegendMM LegendMM LegendMM 101.42     LegendNANA
01:00 -4.8 -8.1 78   LegendMM LegendMM LegendMM 101.40     LegendNANA
02:00 -4.5 -7.5 80   LegendMM LegendMM LegendMM 101.42     LegendNANA
03:00 -4.3 -7.2 80   LegendMM LegendMM LegendMM 101.44     LegendNANA
04:00 -4.2 -7.1 80   LegendMM LegendMM LegendMM 101.38     LegendNANA
05:00 -3.8 -6.6 81   LegendMM LegendMM LegendMM 101.41     LegendNANA
06:00 -3.5 -5.9 83   LegendMM LegendMM LegendMM 101.44     LegendNANA
07:00 -2.9 -5.5 82   LegendMM LegendMM LegendMM 101.47     LegendNANA
08:00 -2.2 -4.9 82   LegendMM LegendMM LegendMM 101.45     LegendNANA
09:00 -1.6 -5.5 75   LegendMM LegendMM LegendMM 101.46     LegendNANA
10:00 -1.6 -6.8 68   LegendMM LegendMM LegendMM 101.53     LegendNANA
11:00 -0.8 -7.9 59   LegendMM LegendMM LegendMM 101.49     LegendNANA
12:00 -0.6 -8.2 56   LegendMM LegendMM LegendMM 101.42     LegendNANA
13:00 0.2 -6.9 59   LegendMM LegendMM LegendMM 101.32     LegendNANA
14:00 0.5 -7.1 57   LegendMM LegendMM LegendMM 101.25     LegendNANA
15:00 0.6 -6.9 57   LegendMM LegendMM LegendMM 101.17     LegendNANA
16:00 0.5 -8.0 53   LegendMM LegendMM LegendMM 101.17     LegendNANA
17:00 0.5 -7.0 57   LegendMM LegendMM LegendMM 101.18     LegendNANA
18:00 0.1 -6.4 62   LegendMM LegendMM LegendMM 101.19     LegendNANA
19:00 0.1 -5.0 69   LegendMM LegendMM LegendMM 101.18     LegendNANA
20:00 0.1 -4.7 70   LegendMM LegendMM LegendMM 101.11     LegendNANA
21:00 0.1 -4.4 72   LegendMM LegendMM LegendMM 101.02     LegendNANA
22:00 0.3 -4.3 71   LegendMM LegendMM LegendMM 100.95     LegendNANA
23:00 0.2 -4.2 72   LegendMM LegendMM LegendMM 100.89     LegendNANA

Notes on Data Quality.

Legend

  • E = Estimated
  • M = Missing
  • NA = Not Available*
  • [empty] = Indicates an unobserved value
Date modified: